EW5232 Weather Reports


Display with metric or nautical units.
time (UTC)temp
F
wind
direction
speed
MPH
gust
MPH
rain 1hr
in
rain 24hr
in
rain mn
in
humidity
%
barometer
mb
20240612211537 67 313 2.0 5.0 0.00 0.00 0.00 82 1014.2
20240612210028 67 274 3.0 7.0 0.00 0.00 0.00 81 1014.3
20240612204525 67 232 2.0 9.0 0.00 0.00 0.00 82 1014.5
20240612203023 68 281 2.0 7.0 0.00 0.00 0.00 81 1014.6
20240612201522 69 250 3.0 7.0 0.00 0.00 0.00 79 1014.7
20240612200028 69 238 3.0 7.0 0.00 0.00 0.00 77 1014.9
20240612194517 68 274 2.0 7.0 0.00 0.00 0.00 80 1015.1
20240612193017 68 221 2.0 7.0 0.00 0.00 0.00 81 1015.1
20240612191513 67 268 1.0 6.0 0.00 0.00 0.00 83 1015.3
20240612190010 66 158 3.0 5.0 0.00 0.00 0.00 84 1015.4
20240612184506 65 209 0.0 6.0 0.00 0.00 0.00 87 1015.4
20240612183004 64 219 2.0 5.0 0.00 0.00 0.00 87 1015.4
20240612181504 64 280 1.0 4.0 0.00 0.00 0.00 89 1015.4
20240612180001 63 248 1.0 4.0 0.00 0.00 0.00 91 1015.4
20240612174619 63 226 1.0 4.0 0.00 0.00 0.00 93 1015.4
20240612173058 62 160 1.0 4.0 0.00 0.00 0.00 94 1015.5
20240612171558 61 238 0.0 3.0 0.00 0.00 0.00 94 1015.4
20240612170059 61 205 0.0 3.0 0.00 0.00 0.00 95 1015.4
20240612164556 60 165 1.0 3.0 0.00 0.00 0.00 95 1015.4
20240612163122 60 248 0.0 3.0 0.00 0.00 0.00 96 1015.4
20240612161604 60 202 0.0 3.0 0.00 0.00 0.00 96 1015.4
20240612160107 60 198 0.0 2.0 0.00 0.00 0.00 96 1015.4
20240612154613 60 139 0.0 2.0 0.00 0.00 0.00 97 1015.4
20240612153051 60 144 1.0 3.0 0.00 0.00 0.00 97 1015.2
20240612151551 60 163 1.0 5.0 0.00 0.00 0.00 96 1015.1
20240612150049 60 153 1.0 3.0 0.00 0.00 0.00 96 1015.0
20240612144554 60 132 1.0 3.0 0.00 0.00 0.00 96 1014.9
20240612143047 60 136 1.0 3.0 0.00 0.00 0.00 96 1014.8
20240612141546 60 141 1.0 4.0 0.00 0.00 0.00 96 1014.7
20240612140044 60 134 1.0 4.0 0.00 0.00 0.00 96 1014.6
20240612134552 60 170 0.0 4.0 0.00 0.00 0.00 96 1014.5
20240612133041 60 156 1.0 6.0 0.00 0.00 0.00 96 1014.3
20240612131539 60 136 1.0 4.0 0.00 0.00 0.00 96 1014.1
20240612130040 60 181 1.0 3.0 0.00 0.00 0.00 96 1013.9
20240612124536 60 184 1.0 3.0 0.00 0.00 0.00 95 1013.6
20240612123032 60 146 1.0 3.0 0.00 0.00 0.00 95 1013.6
20240612121532 60 151 1.0 5.0 0.00 0.00 0.00 95 1013.5
20240612120029 61 147 1.0 5.0 0.00 0.00 0.00 95 1013.2
20240612114528 61 140 2.0 4.0 0.00 0.00 0.00 94 1013.1
20240612113025 61 134 1.0 4.0 0.00 0.00 0.00 94 1013.1
20240612111533 61 149 3.0 7.0 0.00 0.00 0.00 93 1013.0
20240612110022 61 162 2.0 6.0 0.00 0.00 0.00 93 1012.9
20240612104520 62 136 1.0 5.0 0.00 0.00 0.00 92 1012.8
20240612103018 62 135 0.0 4.0 0.00 0.00 0.00 92 1012.9
20240612101545 62 129 0.0 3.0 0.00 0.00 0.00 92 1012.8
20240612100027 62 144 0.0 3.0 0.00 0.00 0.00 92 1012.8
20240612094515 62 137 0.0 3.0 0.00 0.00 0.00 92 1012.8
20240612093018 62 126 0.0 2.0 0.00 0.00 0.00 92 1012.8
20240612091516 62 124 0.0 2.0 0.00 0.00 0.00 92 1012.8
20240612090024 62 140 0.0 2.0 0.00 0.00 0.00 92 1012.7
20240612084512 62 128 0.0 2.0 0.00 0.00 0.00 92 1012.6
20240612083013 62 86 0.0 1.0 0.00 0.00 0.00 92 1012.6
20240612081511 62 110 0.0 1.0 0.00 0.00 0.00 92 1012.6
20240612080011 62 85 0.0 2.0 0.00 0.00 0.00 92 1012.6
20240612074509 62 121 1.0 3.0 0.00 0.00 0.00 91 1012.7
20240612073010 62 75 1.0 4.0 0.00 0.00 0.00 91 1012.8
20240612071507 62 149 0.0 3.0 0.00 0.00 0.00 91 1012.8
20240612070005 62 132 0.0 3.0 0.00 0.00 0.00 91 1012.8
20240612064505 62 145 1.0 3.0 0.00 0.00 0.00 91 1012.8
20240612063004 62 160 0.0 2.0 0.00 0.00 0.00 91 1012.9
20240612061504 62 131 1.0 3.0 0.00 0.00 0.00 91 1012.8
20240612060003 63 138 0.0 2.0 0.00 0.00 0.00 91 1012.9
20240612054503 63 122 0.0 2.0 0.00 0.00 0.00 91 1012.9
20240612053002 62 160 0.0 4.0 0.00 0.00 0.00 91 1012.8
20240612051501 63 150 2.0 4.0 0.00 0.00 0.00 91 1012.8
20240612050003 63 124 0.0 1.0 0.00 0.00 0.00 91 1012.8
20240612044603 63 127 1.0 3.0 0.00 0.00 0.00 90 1012.7
20240612043102 63 134 0.0 4.0 0.00 0.00 0.00 90 1012.6
20240612041600 63 143 0.0 4.0 0.00 0.00 0.00 90 1012.5
20240612040059 63 174 1.0 6.0 0.00 0.00 0.00 90 1012.3
20240612034601 63 129 1.0 6.0 0.00 0.00 0.00 90 1012.1
20240612033059 63 136 2.0 4.0 0.00 0.00 0.00 90 1012.0
20240612031557 63 150 0.0 2.0 0.00 0.00 0.00 90 1011.9
20240612030057 63 89 0.0 4.0 0.00 0.00 0.00 90 1011.9
20240612024558 63 119 2.0 5.0 0.00 0.00 0.00 90 1011.8
20240612023056 63 153 0.0 2.0 0.00 0.00 0.00 90 1011.8
20240612021555 63 134 0.0 2.0 0.00 0.00 0.00 90 1011.7
20240612020055 63 197 0.0 2.0 0.00 0.00 0.00 90 1011.7
20240612014554 63 164 2.0 4.0 0.00 0.00 0.00 89 1011.6
20240612013054 63 229 0.0 3.0 0.00 0.00 0.00 89 1011.6
20240612011604 64 162 2.0 5.0 0.00 0.00 0.00 89 1011.7
20240612010102 64 150 2.0 6.0 0.00 0.00 0.00 88 1011.6
20240612004551 64 131 1.0 3.0 0.00 0.00 0.00 88 1011.6
20240612003103 64 219 2.0 5.0 0.00 0.00 0.00 88 1011.7
20240612001607 65 174 1.0 3.0 0.00 0.00 0.00 88 1011.7
20240612000056 65 259 1.0 4.0 0.00 0.00 0.00 89 1011.8
20240611234559 65 212 2.0 5.0 0.00 0.00 0.00 88 1011.8
20240611233103 65 211 3.0 5.0 0.00 0.00 0.00 87 1011.9
20240611231604 65 143 0.0 4.0 0.00 0.00 0.00 88 1012.0
20240611230047 65 172 1.0 6.0 0.00 0.00 0.00 88 1011.9
20240611224546 64 226 1.0 6.0 0.00 0.00 0.00 88 1012.1
20240611223050 65 143 0.0 5.0 0.00 0.00 0.00 88 1012.2
20240611221546 65 332 1.0 7.0 0.00 0.00 0.00 88 1012.2
20240611220046 65 243 1.0 5.0 0.00 0.00 0.00 88 1012.3
20240611214548 65 152 3.0 6.0 0.00 0.00 0.00 87 1012.4
20240611213043 66 165 3.0 6.0 0.00 0.00 0.00 85 1012.5